Location: Cahas Mountain Overlook
(37.0833°N, 80.1000°W)
Time: 18:58:02
(UTC-04:00)

Tiros 1 - Pass Details

Date: 11 February 2026
Orbit: 618 x 649 km, 48.4° (Epoch: 13 March)

Event Time Altitude Azimuth Distance (km) Brightness Sun altitude
Rises 15:51:43 0° 307° (NW) 2,885 10.7 21.2°
Reaches altitude 10° 15:54:16 10° 318° (NW) 1,978 9.8 20.8°
Maximum altitude 15:58:17 30° 20° (NNE) 1,107 8.1 20.2°
Drops below altitude 10° 16:02:18 10° 83° (E) 1,980 9.2 19.5°
Sets 16:04:51 0° 94° (E) 2,889 10.0 19.1°
